Regional Weather Roundup
Issued by NWS

Home | Current Version | Previous Version | Graphics & Text | Print | Product List | Glossary On
Versions: 1 2 3 4 5 6 7 8 9 10 11 12 13 14 15 16 17 18 19 20 21 22 23 24 25 26 27 28 29 30 31 32 33 34 35 36 37 38 39 40 41 42 43 44 45 46 47 48 49 50
000
ASUS43 KBIS 030510
RWRND

NORTH DAKOTA REGIONAL WEATHER ROUNDUP
NATIONAL WEATHER SERVICE BISMARCK ND
1200 AM CDT MON AUG 03 2015

NOTE: "FAIR" INDICATES FEW OR NO CLOUDS BELOW 12,000 FEET WITH NO
SIGNIFICANT WEATHER AND/OR OBSTRUCTIONS TO VISIBILITY.


NDZ001>003-009>011-017-030600-
NORTHWEST NORTH DAKOTA

CITY           SKY/WX    TMP DP  RH WIND       PRES   REMARKS
WILLISTON      CLEAR     65  49  56 N3        30.02R
MINOT          CLEAR     61  50  67 W8        29.96R
MINOT AFB      CLEAR     54  51  88 NW7       29.96R
$$

NDZ018>021-031>035-040>046-030600-
SOUTHWEST NORTH DAKOTA

CITY           SKY/WX    TMP DP  RH WIND       PRES   REMARKS
BISMARCK       CLEAR     58  52  80 CALM      29.98R
DICKINSON      CLEAR     59  49  69 CALM      30.02R
GARRISON         N/A     57  53  86 NW7       29.98R
HETTINGER ARPT CLEAR     54  47  77 CALM      30.04R
$$

NDZ004>008-012>016-024-026-027-054-030600-
NORTHEAST NORTH DAKOTA

CITY           SKY/WX    TMP DP  RH WIND       PRES   REMARKS
GRAND FORKS    CLEAR     57  49  74 NW7       29.86R
GRND FRKS AFB  CLEAR     61  49  65 N10       29.87R
DEVILS LAKE    CLEAR     59  46  63 NW7       29.91S
$$

NDZ022-023-025-028>030-036>039-047>053-030600-
SOUTHEAST NORTH DAKOTA

CITY           SKY/WX    TMP DP  RH WIND       PRES   REMARKS
FARGO          CLEAR     58  51  78 W7        29.87R
JAMESTOWN      CLEAR     60  52  74 W6        29.92S
$$




USA.gov is the U.S. government's official web portal to all federal, state and local government web resources and services.